Time,TemperatureF,DewpointF,PressureIn,WindDirection,WindDirectionDegrees,WindSpeedMPH,WindSpeedGustMPH,Humidity,HourlyPrecipIn,Conditions,Clouds,dailyrainin,SoftwareType,DateUTC
2013-01-11 00:01:00,35.9,24.0,30.55,SSW,202,0.0,3.7,64,0.00,,,0.00,Rainwise IP-100,2013-01-11 05:01:00,
2013-01-11 00:06:00,35.9,24.0,30.54,SSW,202,0.0,1.2,64,0.00,,,0.00,Rainwise IP-100,2013-01-11 05:06:00,
2013-01-11 00:11:00,36.1,26.0,30.54,SSE,157,0.0,2.3,65,0.00,,,0.00,Rainwise IP-100,2013-01-11 05:11:00,
2013-01-11 00:16:00,36.1,26.0,30.55,SSE,157,1.6,2.3,67,0.00,,,0.00,Rainwise IP-100,2013-01-11 05:16:00,
2013-01-11 00:21:00,35.7,26.0,30.53,SSE,157,0.0,1.9,69,0.00,,,0.00,Rainwise IP-100,2013-01-11 05:21:00,
2013-01-11 00:26:00,35.5,26.0,30.54,WSW,247,1.2,3.0,69,0.00,,,0.00,Rainwise IP-100,2013-01-11 05:26:00,
2013-01-11 00:31:00,35.1,26.0,30.54,West,270,0.0,2.3,70,0.00,,,0.00,Rainwise IP-100,2013-01-11 05:31:00,
2013-01-11 00:37:00,34.9,26.0,30.54,West,270,0.0,2.1,69,0.00,,,0.00,Rainwise IP-100,2013-01-11 05:37:00,
2013-01-11 00:42:00,34.9,24.0,30.53,West,270,0.0,1.2,67,0.00,,,0.00,Rainwise IP-100,2013-01-11 05:42:00,
2013-01-11 00:47:00,35.0,24.0,30.54,West,270,1.6,1.6,66,0.00,,,0.00,Rainwise IP-100,2013-01-11 05:47:00,
2013-01-11 00:52:00,35.0,24.0,30.53,West,270,1.4,2.1,67,0.00,,,0.00,Rainwise IP-100,2013-01-11 05:52:00,
2013-01-11 00:57:00,34.8,26.0,30.53,West,270,1.6,1.9,68,0.00,,,0.00,Rainwise IP-100,2013-01-11 05:57:00,
2013-01-11 01:02:00,34.7,24.0,30.53,WNW,292,2.3,3.0,66,0.00,,,0.00,Rainwise IP-100,2013-01-11 06:02:00,
2013-01-11 01:07:00,34.6,26.0,30.53,WNW,292,1.9,4.2,68,0.00,,,0.00,Rainwise IP-100,2013-01-11 06:07:00,
2013-01-11 01:13:00,34.5,26.0,30.53,WNW,292,0.0,2.8,69,0.00,,,0.00,Rainwise IP-100,2013-01-11 06:13:00,
2013-01-11 01:18:00,34.6,26.0,30.53,NNW,337,3.7,3.7,69,0.00,,,0.00,Rainwise IP-100,2013-01-11 06:18:00,
2013-01-11 01:23:00,34.6,26.0,30.52,NNW,337,5.6,6.5,69,0.00,,,0.00,Rainwise IP-100,2013-01-11 06:23:00,
2013-01-11 01:28:00,34.2,26.0,30.53,NNW,337,2.3,7.0,70,0.00,,,0.00,Rainwise IP-100,2013-01-11 06:28:00,
2013-01-11 01:33:00,34.1,26.0,30.52,NNW,337,1.6,4.0,70,0.00,,,0.00,Rainwise IP-100,2013-01-11 06:33:00,
2013-01-11 01:38:00,34.2,26.0,30.52,WNW,292,4.2,4.4,70,0.00,,,0.00,Rainwise IP-100,2013-01-11 06:38:00,
2013-01-11 01:43:00,34.0,26.0,30.53,WNW,292,1.2,4.4,70,0.00,,,0.00,Rainwise IP-100,2013-01-11 06:43:00,
2013-01-11 01:48:00,34.2,26.0,30.52,WNW,292,3.0,4.0,69,0.00,,,0.00,Rainwise IP-100,2013-01-11 06:48:00,
2013-01-11 01:53:00,34.6,24.0,30.52,WNW,292,0.0,4.0,67,0.00,,,0.00,Rainwise IP-100,2013-01-11 06:53:00,
2013-01-11 01:59:00,34.8,26.0,30.52,WNW,292,1.6,2.6,68,0.00,,,0.00,Rainwise IP-100,2013-01-11 06:59:00,
2013-01-11 02:04:00,34.8,26.0,30.53,WNW,292,0.0,2.6,68,0.00,,,0.00,Rainwise IP-100,2013-01-11 07:04:00,
2013-01-11 02:09:00,34.8,24.0,30.52,WNW,292,0.0,2.3,67,0.00,,,0.00,Rainwise IP-100,2013-01-11 07:09:00,
2013-01-11 02:14:00,34.8,26.0,30.52,WNW,292,0.0,1.2,68,0.00,,,0.00,Rainwise IP-100,2013-01-11 07:14:00,
2013-01-11 02:19:00,34.5,26.0,30.52,WNW,292,0.0,1.6,70,0.00,,,0.00,Rainwise IP-100,2013-01-11 07:19:00,
2013-01-11 02:24:00,34.5,26.0,30.52,WNW,292,0.0,1.2,71,0.00,,,0.00,Rainwise IP-100,2013-01-11 07:24:00,
2013-01-11 02:29:00,34.8,26.0,30.52,ESE,112,2.6,2.6,72,0.00,,,0.00,Rainwise IP-100,2013-01-11 07:29:00,
2013-01-11 02:35:00,35.1,28.0,30.50,NE,45,3.0,4.0,73,0.00,,,0.00,Rainwise IP-100,2013-01-11 07:35:00,
2013-01-11 02:40:00,34.8,28.0,30.52,NE,45,0.0,3.7,73,0.00,,,0.00,Rainwise IP-100,2013-01-11 07:40:00,
2013-01-11 02:45:00,34.5,28.0,30.52,WNW,292,2.1,4.0,73,0.00,,,0.00,Rainwise IP-100,2013-01-11 07:45:00,
2013-01-11 02:50:00,34.3,28.0,30.52,WNW,292,0.0,2.3,74,0.00,,,0.00,Rainwise IP-100,2013-01-11 07:50:00,
2013-01-11 02:55:00,34.1,28.0,30.51,WNW,292,0.0,0.0,75,0.00,,,0.00,Rainwise IP-100,2013-01-11 07:55:00,
2013-01-11 03:00:00,34.3,28.0,30.51,NNE,22,0.0,0.0,75,0.00,,,0.00,Rainwise IP-100,2013-01-11 08:00:00,
2013-01-11 03:05:00,34.2,28.0,30.52,NNE,22,0.0,0.0,76,0.00,,,0.00,Rainwise IP-100,2013-01-11 08:05:00,
2013-01-11 03:10:00,33.7,28.0,30.51,NNE,22,1.2,1.2,76,0.00,,,0.00,Rainwise IP-100,2013-01-11 08:10:00,
2013-01-11 03:16:00,33.2,26.0,30.51,NNE,22,0.0,1.2,76,0.00,,,0.00,Rainwise IP-100,2013-01-11 08:16:00,
2013-01-11 03:21:00,33.0,28.0,30.51,NNE,22,1.4,1.6,77,0.00,,,0.00,Rainwise IP-100,2013-01-11 08:21:00,
2013-01-11 03:26:00,32.8,28.0,30.50,NNE,22,2.6,3.0,77,0.00,,,0.00,Rainwise IP-100,2013-01-11 08:26:00,
2013-01-11 03:31:00,32.7,28.0,30.50,NNE,22,0.0,3.3,77,0.00,,,0.00,Rainwise IP-100,2013-01-11 08:31:00,
2013-01-11 03:36:00,32.8,28.0,30.51,NNE,22,1.2,1.4,77,0.00,,,0.00,Rainwise IP-100,2013-01-11 08:36:00,
2013-01-11 03:41:00,32.4,26.0,30.50,NNW,337,2.8,4.9,78,0.00,,,0.00,Rainwise IP-100,2013-01-11 08:41:00,
2013-01-11 03:46:00,32.2,26.0,30.49,NW,315,2.3,5.4,78,0.00,,,0.00,Rainwise IP-100,2013-01-11 08:46:00,
2013-01-11 03:52:00,32.2,26.0,30.50,North,360,1.9,4.4,78,0.00,,,0.00,Rainwise IP-100,2013-01-11 08:52:00,
2013-01-11 03:53:00,32.1,26.0,30.49,North,360,2.8,3.0,78,0.00,,,0.00,Rainwise IP-100,2013-01-11 08:53:00,
2013-01-11 03:54:00,32.1,26.0,30.49,North,360,3.7,3.7,78,0.00,,,0.00,Rainwise IP-100,2013-01-11 08:54:00,
2013-01-11 03:56:00,32.1,26.0,30.49,North,360,3.5,4.0,78,0.00,,,0.00,Rainwise IP-100,2013-01-11 08:56:00,
2013-01-11 03:59:00,32.2,26.0,30.49,North,360,2.1,4.2,78,0.00,,,0.00,Rainwise IP-100,2013-01-11 08:59:00,
2013-01-11 04:00:00,32.3,26.0,30.48,North,360,3.7,4.2,78,0.00,,,0.00,Rainwise IP-100,2013-01-11 09:00:00,
2013-01-11 04:02:00,32.3,26.0,30.49,NNE,22,2.3,4.4,77,0.00,,,0.00,Rainwise IP-100,2013-01-11 09:02:00,
2013-01-11 04:04:00,32.4,26.0,30.48,NNE,22,2.3,4.4,77,0.00,,,0.00,Rainwise IP-100,2013-01-11 09:04:00,
2013-01-11 04:05:00,32.4,26.0,30.48,NNE,22,1.9,4.4,77,0.00,,,0.00,Rainwise IP-100,2013-01-11 09:05:00,
2013-01-11 04:06:00,32.5,26.0,30.49,North,360,1.6,4.4,76,0.00,,,0.00,Rainwise IP-100,2013-01-11 09:06:00,
2013-01-11 04:08:00,32.6,26.0,30.48,NNE,22,3.5,4.2,76,0.00,,,0.00,Rainwise IP-100,2013-01-11 09:08:00,
2013-01-11 04:10:00,32.7,26.0,30.48,NNE,22,2.1,4.9,75,0.00,,,0.00,Rainwise IP-100,2013-01-11 09:10:00,
2013-01-11 04:11:00,32.7,26.0,30.48,NNW,337,3.0,4.9,75,0.00,,,0.00,Rainwise IP-100,2013-01-11 09:11:00,
2013-01-11 04:16:00,32.8,26.0,30.47,North,360,3.0,3.5,74,0.00,,,0.00,Rainwise IP-100,2013-01-11 09:16:00,
2013-01-11 04:21:00,32.8,26.0,30.47,NNE,22,2.3,3.0,73,0.00,,,0.00,Rainwise IP-100,2013-01-11 09:21:00,
2013-01-11 04:26:00,32.9,26.0,30.47,NNE,22,3.5,4.9,72,0.00,,,0.00,Rainwise IP-100,2013-01-11 09:26:00,
2013-01-11 04:32:00,33.0,26.0,30.47,NE,45,3.3,6.5,72,0.00,,,0.00,Rainwise IP-100,2013-01-11 09:32:00,
2013-01-11 04:37:00,32.9,26.0,30.47,NE,45,2.1,5.1,72,0.00,,,0.00,Rainwise IP-100,2013-01-11 09:37:00,
2013-01-11 04:42:00,32.9,26.0,30.47,NE,45,0.0,2.6,72,0.00,,,0.00,Rainwise IP-100,2013-01-11 09:42:00,
2013-01-11 04:47:00,32.8,26.0,30.47,NE,45,0.0,2.1,72,0.00,,,0.00,Rainwise IP-100,2013-01-11 09:47:00,
2013-01-11 04:52:00,32.7,26.0,30.47,NE,45,1.2,1.2,73,0.00,,,0.00,Rainwise IP-100,2013-01-11 09:52:00,
2013-01-11 04:57:00,32.7,26.0,30.47,NNW,337,0.0,3.7,74,0.00,,,0.00,Rainwise IP-100,2013-01-11 09:57:00,
2013-01-11 05:03:00,32.7,26.0,30.47,NNW,337,0.0,1.9,75,0.00,,,0.00,Rainwise IP-100,2013-01-11 10:03:00,
2013-01-11 05:08:00,32.8,26.0,30.46,NNW,337,1.6,2.8,75,0.00,,,0.00,Rainwise IP-100,2013-01-11 10:08:00,
2013-01-11 05:13:00,32.8,26.0,30.47,NNW,337,1.4,2.1,73,0.00,,,0.00,Rainwise IP-100,2013-01-11 10:13:00,
2013-01-11 05:18:00,32.9,26.0,30.47,NNW,337,0.0,3.0,73,0.00,,,0.00,Rainwise IP-100,2013-01-11 10:18:00,
2013-01-11 05:23:00,32.8,26.0,30.47,North,360,2.6,4.2,74,0.00,,,0.00,Rainwise IP-100,2013-01-11 10:23:00,
2013-01-11 05:28:00,32.7,26.0,30.47,North,360,0.0,3.7,74,0.00,,,0.00,Rainwise IP-100,2013-01-11 10:28:00,
2013-01-11 05:33:00,32.9,26.0,30.47,North,360,0.0,1.2,74,0.00,,,0.00,Rainwise IP-100,2013-01-11 10:33:00,
2013-01-11 05:38:00,33.2,26.0,30.47,North,360,1.6,1.6,74,0.00,,,0.00,Rainwise IP-100,2013-01-11 10:38:00,
2013-01-11 05:44:00,33.4,26.0,30.46,NNE,22,3.3,3.7,73,0.00,,,0.00,Rainwise IP-100,2013-01-11 10:44:00,
2013-01-11 05:49:00,33.3,26.0,30.46,NNW,337,2.8,5.1,72,0.00,,,0.00,Rainwise IP-100,2013-01-11 10:49:00,
2013-01-11 05:54:00,33.3,24.0,30.46,ENE,67,3.7,4.2,71,0.00,,,0.00,Rainwise IP-100,2013-01-11 10:54:00,
2013-01-11 05:59:00,33.5,26.0,30.47,NNW,337,2.3,4.4,71,0.00,,,0.00,Rainwise IP-100,2013-01-11 10:59:00,
2013-01-11 06:04:00,33.6,26.0,30.47,NW,315,2.1,3.5,70,0.00,,,0.00,Rainwise IP-100,2013-01-11 11:04:00,
2013-01-11 06:09:00,33.6,26.0,30.47,NNW,337,3.7,4.2,70,0.00,,,0.00,Rainwise IP-100,2013-01-11 11:09:00,
2013-01-11 06:14:00,33.6,26.0,30.47,North,360,4.0,4.9,70,0.00,,,0.00,Rainwise IP-100,2013-01-11 11:14:00,
2013-01-11 06:20:00,33.7,26.0,30.47,North,360,2.6,4.9,69,0.00,,,0.00,Rainwise IP-100,2013-01-11 11:20:00,
2013-01-11 06:25:00,33.8,26.0,30.48,North,360,1.6,4.0,69,0.00,,,0.00,Rainwise IP-100,2013-01-11 11:25:00,
2013-01-11 06:30:00,34.0,26.0,30.47,NNE,22,1.9,3.5,69,0.00,,,0.00,Rainwise IP-100,2013-01-11 11:30:00,
2013-01-11 06:35:00,34.2,26.0,30.48,NE,45,0.0,3.5,68,0.00,,,0.00,Rainwise IP-100,2013-01-11 11:35:00,
2013-01-11 06:40:00,34.4,26.0,30.47,ENE,67,0.0,2.8,68,0.00,,,0.00,Rainwise IP-100,2013-01-11 11:40:00,
2013-01-11 06:45:00,34.5,26.0,30.47,NE,45,2.8,3.5,68,0.00,,,0.00,Rainwise IP-100,2013-01-11 11:45:00,
2013-01-11 06:50:00,34.5,26.0,30.48,North,360,1.4,3.3,68,0.00,,,0.00,Rainwise IP-100,2013-01-11 11:50:00,
2013-01-11 06:55:00,34.5,26.0,30.48,North,360,1.6,2.1,68,0.00,,,0.00,Rainwise IP-100,2013-01-11 11:55:00,
2013-01-11 07:00:00,34.5,26.0,30.48,North,360,2.6,3.3,68,0.00,,,0.00,Rainwise IP-100,2013-01-11 12:00:00,
2013-01-11 07:01:00,34.5,26.0,30.48,North,360,1.9,3.3,68,0.00,,,0.00,Rainwise IP-100,2013-01-11 12:01:00,
2013-01-11 07:06:00,34.5,26.0,30.48,NE,45,2.3,3.5,68,0.00,,,0.00,Rainwise IP-100,2013-01-11 12:06:00,
2013-01-11 07:11:00,34.5,24.0,30.48,NE,45,2.1,3.3,67,0.00,,,0.00,Rainwise IP-100,2013-01-11 12:11:00,
2013-01-11 07:16:00,34.5,24.0,30.49,NE,45,0.0,3.7,67,0.00,,,0.00,Rainwise IP-100,2013-01-11 12:16:00,
2013-01-11 07:21:00,34.5,26.0,30.48,NNW,337,2.1,4.0,68,0.00,,,0.00,Rainwise IP-100,2013-01-11 12:21:00,
2013-01-11 07:26:00,34.5,26.0,30.49,North,360,0.0,4.0,68,0.00,,,0.00,Rainwise IP-100,2013-01-11 12:26:00,
2013-01-11 07:31:00,34.5,26.0,30.49,North,360,4.2,4.2,68,0.00,,,0.00,Rainwise IP-100,2013-01-11 12:31:00,
2013-01-11 07:36:00,34.6,26.0,30.50,NNE,22,2.6,5.1,68,0.00,,,0.00,Rainwise IP-100,2013-01-11 12:36:00,
2013-01-11 07:41:00,34.7,24.0,30.49,NNE,22,1.4,4.2,67,0.00,,,0.00,Rainwise IP-100,2013-01-11 12:41:00,
2013-01-11 07:47:00,34.7,24.0,30.49,NNE,22,2.1,4.0,67,0.00,,,0.00,Rainwise IP-100,2013-01-11 12:47:00,
2013-01-11 07:52:00,34.7,24.0,30.50,NNE,22,1.2,3.3,67,0.00,,,0.00,Rainwise IP-100,2013-01-11 12:52:00,
2013-01-11 07:57:00,34.8,24.0,30.50,NNE,22,0.0,4.0,67,0.00,,,0.00,Rainwise IP-100,2013-01-11 12:57:00,
2013-01-11 08:02:00,34.9,24.0,30.50,NE,45,1.4,4.9,67,0.00,,,0.00,Rainwise IP-100,2013-01-11 13:02:00,
2013-01-11 08:07:00,35.0,24.0,30.50,NE,45,0.0,3.3,67,0.00,,,0.00,Rainwise IP-100,2013-01-11 13:07:00,
2013-01-11 08:12:00,35.0,24.0,30.50,NE,45,1.2,3.0,67,0.00,,,0.00,Rainwise IP-100,2013-01-11 13:12:00,
2013-01-11 08:17:00,35.1,24.0,30.49,NE,45,2.1,3.0,67,0.00,,,0.00,Rainwise IP-100,2013-01-11 13:17:00,
2013-01-11 08:23:00,35.2,24.0,30.49,NE,45,2.3,3.5,67,0.00,,,0.00,Rainwise IP-100,2013-01-11 13:23:00,
2013-01-11 08:28:00,35.2,24.0,30.48,ENE,67,4.2,6.8,67,0.00,,,0.00,Rainwise IP-100,2013-01-11 13:28:00,
2013-01-11 08:33:00,35.3,24.0,30.48,ENE,67,5.4,5.6,67,0.00,,,0.00,Rainwise IP-100,2013-01-11 13:33:00,
2013-01-11 08:38:00,35.3,26.0,30.47,ENE,67,3.7,5.8,68,0.00,,,0.00,Rainwise IP-100,2013-01-11 13:38:00,
2013-01-11 08:43:00,35.5,26.0,30.48,NE,45,3.7,5.4,69,0.00,,,0.00,Rainwise IP-100,2013-01-11 13:43:00,
2013-01-11 08:48:00,35.6,26.0,30.48,NE,45,3.3,4.7,69,0.00,,,0.00,Rainwise IP-100,2013-01-11 13:48:00,
2013-01-11 08:53:00,35.8,26.0,30.47,ENE,67,6.5,6.5,69,0.00,,,0.00,Rainwise IP-100,2013-01-11 13:53:00,
2013-01-11 08:58:00,35.9,26.0,30.47,ENE,67,3.3,6.5,69,0.00,,,0.00,Rainwise IP-100,2013-01-11 13:58:00,
2013-01-11 09:04:00,36.1,26.0,30.47,East,90,2.8,6.3,69,0.00,,,0.00,Rainwise IP-100,2013-01-11 14:04:00,
2013-01-11 09:09:00,36.3,26.0,30.47,ENE,67,5.1,8.6,69,0.00,,,0.00,Rainwise IP-100,2013-01-11 14:09:00,
2013-01-11 09:14:00,36.4,28.0,30.47,ENE,67,8.6,8.6,70,0.00,,,0.00,Rainwise IP-100,2013-01-11 14:14:00,
2013-01-11 09:19:00,36.5,28.0,30.47,NE,45,5.1,9.1,70,0.00,,,0.00,Rainwise IP-100,2013-01-11 14:19:00,
2013-01-11 09:24:00,36.5,29.0,30.47,ENE,67,8.9,11.7,71,0.00,,,0.00,Rainwise IP-100,2013-01-11 14:24:00,
2013-01-11 09:29:00,36.6,29.0,30.47,NE,45,4.2,8.9,72,0.00,,,0.00,Rainwise IP-100,2013-01-11 14:29:00,
2013-01-11 09:34:00,36.7,29.0,30.48,ENE,67,3.3,7.9,72,0.00,,,0.00,Rainwise IP-100,2013-01-11 14:34:00,
2013-01-11 09:40:00,36.8,29.0,30.48,NE,45,6.1,6.1,73,0.00,,,0.00,Rainwise IP-100,2013-01-11 14:40:00,
2013-01-11 09:45:00,36.8,29.0,30.48,ENE,67,3.3,8.4,73,0.00,,,0.00,Rainwise IP-100,2013-01-11 14:45:00,
2013-01-11 09:50:00,36.8,29.0,30.48,East,90,4.4,8.4,73,0.00,,,0.00,Rainwise IP-100,2013-01-11 14:50:00,
2013-01-11 09:55:00,36.8,29.0,30.48,ENE,67,5.4,7.9,74,0.00,,,0.00,Rainwise IP-100,2013-01-11 14:55:00,
2013-01-11 10:00:00,36.9,31.0,30.48,ENE,67,4.2,8.4,75,0.00,,,0.00,Rainwise IP-100,2013-01-11 15:00:00,
2013-01-11 10:05:00,36.9,31.0,30.47,ENE,67,4.7,8.2,75,0.00,,,0.00,Rainwise IP-100,2013-01-11 15:05:00,
2013-01-11 10:10:00,36.9,31.0,30.47,ENE,67,5.8,7.5,75,0.00,,,0.00,Rainwise IP-100,2013-01-11 15:10:00,
2013-01-11 10:15:00,37.0,31.0,30.47,NE,45,8.6,8.6,76,0.00,,,0.00,Rainwise IP-100,2013-01-11 15:15:00,
2013-01-11 10:21:00,37.2,31.0,30.47,ENE,67,4.0,9.1,76,0.00,,,0.00,Rainwise IP-100,2013-01-11 15:21:00,
2013-01-11 10:26:00,37.3,31.0,30.47,NE,45,5.4,8.9,76,0.00,,,0.00,Rainwise IP-100,2013-01-11 15:26:00,
2013-01-11 10:31:00,37.3,31.0,30.45,NE,45,5.4,8.4,76,0.00,,,0.00,Rainwise IP-100,2013-01-11 15:31:00,
2013-01-11 10:36:00,37.4,31.0,30.45,ENE,67,6.8,9.8,76,0.00,,,0.00,Rainwise IP-100,2013-01-11 15:36:00,
2013-01-11 10:41:00,37.6,31.0,30.46,ENE,67,2.1,7.5,76,0.00,,,0.00,Rainwise IP-100,2013-01-11 15:41:00,
2013-01-11 10:46:00,37.8,31.0,30.46,ENE,67,7.7,8.6,76,0.00,,,0.00,Rainwise IP-100,2013-01-11 15:46:00,
2013-01-11 10:51:00,38.0,31.0,30.46,NNE,22,4.7,8.9,76,0.00,,,0.00,Rainwise IP-100,2013-01-11 15:51:00,
2013-01-11 10:57:00,38.2,31.0,30.45,ENE,67,5.4,11.9,76,0.00,,,0.00,Rainwise IP-100,2013-01-11 15:57:00,
2013-01-11 11:02:00,38.2,31.0,30.44,East,90,6.3,8.2,76,0.00,,,0.00,Rainwise IP-100,2013-01-11 16:02:00,
2013-01-11 11:07:00,38.4,31.0,30.44,ENE,67,7.7,10.3,76,0.00,,,0.00,Rainwise IP-100,2013-01-11 16:07:00,
2013-01-11 11:12:00,38.4,31.0,30.42,East,90,8.2,12.6,76,0.00,,,0.00,Rainwise IP-100,2013-01-11 16:12:00,
2013-01-11 11:17:00,38.4,31.0,30.42,ENE,67,7.2,11.2,76,0.00,,,0.00,Rainwise IP-100,2013-01-11 16:17:00,
2013-01-11 11:22:00,38.5,32.0,30.41,ENE,67,6.5,12.1,76,0.00,,,0.00,Rainwise IP-100,2013-01-11 16:22:00,
2013-01-11 11:27:00,38.7,32.0,30.41,ENE,67,5.4,9.3,76,0.00,,,0.00,Rainwise IP-100,2013-01-11 16:27:00,
2013-01-11 11:32:00,38.6,32.0,30.42,East,90,6.8,9.3,76,0.00,,,0.00,Rainwise IP-100,2013-01-11 16:32:00,
2013-01-11 11:38:00,38.5,32.0,30.41,East,90,4.4,9.8,76,0.00,,,0.00,Rainwise IP-100,2013-01-11 16:38:00,
2013-01-11 11:43:00,38.6,32.0,30.40,ENE,67,7.5,10.5,77,0.00,,,0.00,Rainwise IP-100,2013-01-11 16:43:00,
2013-01-11 11:48:00,38.8,32.0,30.40,East,90,7.0,8.9,77,0.00,,,0.00,Rainwise IP-100,2013-01-11 16:48:00,
2013-01-11 11:53:00,38.8,32.0,30.40,ENE,67,6.3,13.1,77,0.00,,,0.00,Rainwise IP-100,2013-01-11 16:53:00,
2013-01-11 11:58:00,38.6,32.0,30.40,East,90,6.3,12.1,77,0.00,,,0.00,Rainwise IP-100,2013-01-11 16:58:00,
2013-01-11 12:03:00,38.5,32.0,30.38,East,90,14.2,14.2,77,0.00,,,0.00,Rainwise IP-100,2013-01-11 17:03:00,
2013-01-11 12:08:00,38.6,32.0,30.37,ENE,67,9.3,15.9,77,0.00,,,0.00,Rainwise IP-100,2013-01-11 17:08:00,
2013-01-11 12:14:00,38.6,33.0,30.36,East,90,10.3,14.7,78,0.00,,,0.00,Rainwise IP-100,2013-01-11 17:14:00,
2013-01-11 12:19:00,38.6,33.0,30.36,ENE,67,13.5,15.6,78,0.00,,,0.00,Rainwise IP-100,2013-01-11 17:19:00,
2013-01-11 12:24:00,38.6,33.0,30.36,East,90,8.4,13.5,78,0.00,,,0.00,Rainwise IP-100,2013-01-11 17:24:00,
2013-01-11 12:29:00,38.7,33.0,30.36,East,90,7.5,10.5,78,0.00,,,0.00,Rainwise IP-100,2013-01-11 17:29:00,
2013-01-11 12:34:00,38.7,33.0,30.36,ENE,67,11.7,12.6,79,0.00,,,0.00,Rainwise IP-100,2013-01-11 17:34:00,
2013-01-11 12:39:00,38.6,33.0,30.36,East,90,7.2,14.7,79,0.00,,,0.00,Rainwise IP-100,2013-01-11 17:39:00,
2013-01-11 12:44:00,38.4,32.0,30.37,ESE,112,7.9,14.2,79,0.00,,,0.00,Rainwise IP-100,2013-01-11 17:44:00,
2013-01-11 12:49:00,38.4,32.0,30.37,ESE,112,4.9,11.9,79,0.00,,,0.00,Rainwise IP-100,2013-01-11 17:49:00,
2013-01-11 12:55:00,38.5,33.0,30.36,East,90,7.9,13.3,79,0.00,,,0.00,Rainwise IP-100,2013-01-11 17:55:00,
2013-01-11 13:00:00,38.5,33.0,30.36,East,90,6.5,13.3,80,0.00,,,0.00,Rainwise IP-100,2013-01-11 18:00:00,
2013-01-11 13:05:00,38.5,33.0,30.35,ENE,67,6.3,9.6,81,0.00,,,0.00,Rainwise IP-100,2013-01-11 18:05:00,
2013-01-11 13:10:00,38.5,33.0,30.36,ENE,67,5.6,11.4,81,0.00,,,0.00,Rainwise IP-100,2013-01-11 18:10:00,
2013-01-11 13:15:00,38.6,33.0,30.35,ENE,67,9.8,10.5,81,0.00,,,0.00,Rainwise IP-100,2013-01-11 18:15:00,
2013-01-11 13:20:00,38.5,33.0,30.36,East,90,3.0,12.4,81,0.00,,,0.00,Rainwise IP-100,2013-01-11 18:20:00,
2013-01-11 13:25:00,38.6,33.0,30.35,East,90,4.7,10.3,81,0.00,,,0.00,Rainwise IP-100,2013-01-11 18:25:00,
2013-01-11 13:30:00,38.6,33.0,30.35,ENE,67,7.2,8.9,81,0.00,,,0.00,Rainwise IP-100,2013-01-11 18:30:00,
2013-01-11 13:31:00,38.6,33.0,30.35,ENE,67,8.4,11.2,81,0.00,,,0.00,Rainwise IP-100,2013-01-11 18:31:00,
2013-01-11 13:36:00,38.5,35.0,30.35,ENE,67,7.0,9.1,82,0.00,,,0.00,Rainwise IP-100,2013-01-11 18:36:00,
2013-01-11 13:41:00,38.4,33.0,30.35,ENE,67,6.1,10.0,82,0.00,,,0.00,Rainwise IP-100,2013-01-11 18:41:00,
2013-01-11 13:42:00,38.4,33.0,30.35,East,90,7.7,10.0,82,0.00,,,0.00,Rainwise IP-100,2013-01-11 18:42:00,
2013-01-11 13:47:00,38.4,33.0,30.35,East,90,2.8,7.9,82,0.00,,,0.00,Rainwise IP-100,2013-01-11 18:47:00,
2013-01-11 13:52:00,38.4,33.0,30.34,ENE,67,5.8,7.5,82,0.00,,,0.00,Rainwise IP-100,2013-01-11 18:52:00,
2013-01-11 13:57:00,38.4,33.0,30.34,ENE,67,6.3,9.3,83,0.00,,,0.00,Rainwise IP-100,2013-01-11 18:57:00,
2013-01-11 14:03:00,38.3,33.0,30.34,ENE,67,7.0,9.8,83,0.00,,,0.00,Rainwise IP-100,2013-01-11 19:03:00,
2013-01-11 14:08:00,38.3,33.0,30.34,NNE,22,5.8,8.6,83,0.00,,,0.00,Rainwise IP-100,2013-01-11 19:08:00,
2013-01-11 14:13:00,38.3,33.0,30.34,ENE,67,7.7,8.2,84,0.00,,,0.00,Rainwise IP-100,2013-01-11 19:13:00,
2013-01-11 14:18:00,38.2,35.0,30.34,ENE,67,7.5,9.1,85,0.00,,,0.00,Rainwise IP-100,2013-01-11 19:18:00,
2013-01-11 14:23:00,38.2,35.0,30.33,NE,45,6.3,10.0,85,0.00,,,0.00,Rainwise IP-100,2013-01-11 19:23:00,
2013-01-11 14:28:00,38.3,35.0,30.33,ENE,67,6.3,9.8,85,0.00,,,0.00,Rainwise IP-100,2013-01-11 19:28:00,
2013-01-11 14:33:00,38.3,35.0,30.33,ENE,67,4.2,9.1,86,0.00,,,0.00,Rainwise IP-100,2013-01-11 19:33:00,
2013-01-11 14:38:00,38.3,35.0,30.33,ENE,67,6.3,8.4,86,0.00,,,0.00,Rainwise IP-100,2013-01-11 19:38:00,
2013-01-11 14:44:00,38.3,35.0,30.32,East,90,4.2,8.4,86,0.00,,,0.00,Rainwise IP-100,2013-01-11 19:44:00,
2013-01-11 14:49:00,38.4,35.0,30.32,East,90,2.1,9.1,86,0.00,,,0.00,Rainwise IP-100,2013-01-11 19:49:00,
2013-01-11 14:54:00,38.5,36.0,30.32,East,90,6.5,11.2,86,0.00,,,0.00,Rainwise IP-100,2013-01-11 19:54:00,
2013-01-11 14:59:00,38.5,36.0,30.32,ENE,67,4.9,11.4,86,0.00,,,0.00,Rainwise IP-100,2013-01-11 19:59:00,
2013-01-11 15:04:00,38.5,36.0,30.32,ENE,67,2.3,7.5,86,0.00,,,0.00,Rainwise IP-100,2013-01-11 20:04:00,
2013-01-11 15:09:00,38.6,36.0,30.32,ENE,67,5.4,6.8,87,0.00,,,0.00,Rainwise IP-100,2013-01-11 20:09:00,
2013-01-11 15:14:00,38.6,36.0,30.31,ENE,67,6.8,10.7,87,0.00,,,0.00,Rainwise IP-100,2013-01-11 20:14:00,
2013-01-11 15:20:00,38.6,36.0,30.31,ENE,67,8.6,12.1,87,0.00,,,0.00,Rainwise IP-100,2013-01-11 20:20:00,
2013-01-11 15:25:00,38.4,35.0,30.31,ENE,67,8.4,11.9,87,0.00,,,0.00,Rainwise IP-100,2013-01-11 20:25:00,
2013-01-11 15:30:00,38.3,35.0,30.31,ENE,67,4.0,10.7,87,0.00,,,0.00,Rainwise IP-100,2013-01-11 20:30:00,
2013-01-11 15:35:00,38.3,35.0,30.31,NE,45,3.5,6.1,87,0.00,,,0.00,Rainwise IP-100,2013-01-11 20:35:00,
2013-01-11 15:40:00,38.4,35.0,30.30,ENE,67,4.4,7.5,87,0.00,,,0.00,Rainwise IP-100,2013-01-11 20:40:00,
2013-01-11 15:45:00,38.3,35.0,30.30,ENE,67,6.8,7.9,87,0.00,,,0.00,Rainwise IP-100,2013-01-11 20:45:00,
2013-01-11 15:50:00,38.3,35.0,30.29,NE,45,6.5,13.5,87,0.00,,,0.00,Rainwise IP-100,2013-01-11 20:50:00,
2013-01-11 15:55:00,38.3,35.0,30.28,ENE,67,4.2,9.8,87,0.00,,,0.00,Rainwise IP-100,2013-01-11 20:55:00,
2013-01-11 16:00:00,38.3,35.0,30.29,NE,45,4.4,8.4,88,0.00,,,0.00,Rainwise IP-100,2013-01-11 21:00:00,
2013-01-11 16:06:00,38.3,35.0,30.29,ENE,67,2.3,8.2,88,0.00,,,0.00,Rainwise IP-100,2013-01-11 21:06:00,
2013-01-11 16:11:00,38.3,35.0,30.28,ENE,67,2.1,8.6,88,0.00,,,0.00,Rainwise IP-100,2013-01-11 21:11:00,
2013-01-11 16:16:00,38.3,35.0,30.28,East,90,2.6,9.3,88,0.00,,,0.00,Rainwise IP-100,2013-01-11 21:16:00,
2013-01-11 16:21:00,38.3,35.0,30.28,ENE,67,4.9,7.9,88,0.00,,,0.00,Rainwise IP-100,2013-01-11 21:21:00,
2013-01-11 16:26:00,38.4,35.0,30.29,NE,45,4.7,8.4,88,0.00,,,0.00,Rainwise IP-100,2013-01-11 21:26:00,
2013-01-11 16:31:00,38.3,35.0,30.28,NE,45,1.9,5.8,88,0.00,,,0.00,Rainwise IP-100,2013-01-11 21:31:00,
2013-01-11 16:36:00,38.3,35.0,30.28,ENE,67,3.3,7.7,89,0.00,,,0.00,Rainwise IP-100,2013-01-11 21:36:00,
2013-01-11 16:41:00,38.3,35.0,30.28,ENE,67,7.9,7.9,89,0.00,,,0.00,Rainwise IP-100,2013-01-11 21:41:00,
2013-01-11 16:47:00,38.3,35.0,30.27,ENE,67,4.0,9.8,89,0.00,,,0.00,Rainwise IP-100,2013-01-11 21:47:00,
2013-01-11 16:52:00,38.3,36.0,30.26,ENE,67,4.4,7.7,90,0.00,,,0.00,Rainwise IP-100,2013-01-11 21:52:00,
2013-01-11 16:57:00,38.3,36.0,30.26,East,90,3.0,7.5,90,0.00,,,0.00,Rainwise IP-100,2013-01-11 21:57:00,
2013-01-11 17:02:00,38.3,36.0,30.26,NE,45,6.3,9.8,90,0.00,,,0.00,Rainwise IP-100,2013-01-11 22:02:00,
2013-01-11 17:07:00,38.3,36.0,30.27,ENE,67,3.3,7.9,91,0.00,,,0.00,Rainwise IP-100,2013-01-11 22:07:00,
2013-01-11 17:12:00,38.4,36.0,30.26,ENE,67,5.4,5.4,91,0.06,,,0.01,Rainwise IP-100,2013-01-11 22:12:00,
2013-01-11 17:17:00,38.4,36.0,30.26,East,90,4.4,7.7,91,0.06,,,0.01,Rainwise IP-100,2013-01-11 22:17:00,
2013-01-11 17:23:00,38.4,36.0,30.26,North,360,0.0,7.2,92,0.00,,,0.02,Rainwise IP-100,2013-01-11 22:23:00,
2013-01-11 17:28:00,38.4,36.0,30.26,North,360,1.2,8.4,92,0.06,,,0.02,Rainwise IP-100,2013-01-11 22:28:00,
2013-01-11 17:33:00,38.4,36.0,30.26,NE,45,5.6,7.5,92,0.00,,,0.02,Rainwise IP-100,2013-01-11 22:33:00,
2013-01-11 17:38:00,38.4,36.0,30.25,ENE,67,4.0,5.6,93,0.00,,,0.02,Rainwise IP-100,2013-01-11 22:38:00,
2013-01-11 17:43:00,38.4,36.0,30.25,ENE,67,3.3,5.8,93,0.06,,,0.03,Rainwise IP-100,2013-01-11 22:43:00,
2013-01-11 17:48:00,38.5,37.0,30.24,East,90,3.0,5.1,93,0.06,,,0.03,Rainwise IP-100,2013-01-11 22:48:00,
2013-01-11 17:53:00,38.5,38.0,30.24,ENE,67,1.6,7.5,94,0.12,,,0.05,Rainwise IP-100,2013-01-11 22:53:00,
2013-01-11 17:58:00,38.6,38.0,30.23,ENE,67,3.3,7.0,94,0.12,,,0.05,Rainwise IP-100,2013-01-11 22:58:00,
2013-01-11 18:04:00,38.7,38.0,30.24,NNE,22,1.2,4.9,94,0.00,,,0.05,Rainwise IP-100,2013-01-11 23:04:00,
2013-01-11 18:09:00,38.7,38.0,30.24,NE,45,3.3,6.1,94,0.00,,,0.05,Rainwise IP-100,2013-01-11 23:09:00,
2013-01-11 18:14:00,38.8,38.0,30.24,NE,45,3.5,6.8,95,0.06,,,0.06,Rainwise IP-100,2013-01-11 23:14:00,
2013-01-11 18:19:00,38.9,38.0,30.24,ENE,67,5.4,5.4,95,0.06,,,0.06,Rainwise IP-100,2013-01-11 23:19:00,
2013-01-11 18:24:00,39.0,38.0,30.23,ENE,67,3.0,6.5,95,0.00,,,0.06,Rainwise IP-100,2013-01-11 23:24:00,
2013-01-11 18:29:00,39.2,38.0,30.23,NE,45,2.1,5.1,95,0.06,,,0.07,Rainwise IP-100,2013-01-11 23:29:00,
2013-01-11 18:34:00,39.2,38.0,30.23,East,90,1.6,5.8,95,0.06,,,0.07,Rainwise IP-100,2013-01-11 23:34:00,
2013-01-11 18:40:00,39.3,38.0,30.22,NE,45,5.1,9.6,96,0.06,,,0.08,Rainwise IP-100,2013-01-11 23:40:00,
2013-01-11 18:45:00,39.5,39.0,30.22,NE,45,7.7,10.0,96,0.06,,,0.09,Rainwise IP-100,2013-01-11 23:45:00,
2013-01-11 18:50:00,39.7,39.0,30.21,NNE,22,8.2,8.6,96,0.12,,,0.10,Rainwise IP-100,2013-01-11 23:50:00,
2013-01-11 18:55:00,39.8,39.0,30.21,NNE,22,3.5,9.6,96,0.12,,,0.11,Rainwise IP-100,2013-01-11 23:55:00,
2013-01-11 19:00:00,39.9,39.0,30.21,NE,45,2.6,4.0,96,0.12,,,0.12,Rainwise IP-100,2013-01-12 00:00:00,
2013-01-11 19:05:00,39.8,39.0,30.20,NE,45,1.9,6.3,96,0.12,,,0.13,Rainwise IP-100,2013-01-12 00:05:00,
2013-01-11 19:10:00,40.0,39.0,30.20,North,360,3.0,5.1,96,0.12,,,0.15,Rainwise IP-100,2013-01-12 00:10:00,
2013-01-11 19:15:00,40.0,39.0,30.20,NNE,22,3.5,4.9,96,0.12,,,0.15,Rainwise IP-100,2013-01-12 00:15:00,
2013-01-11 19:21:00,40.1,39.0,30.19,ENE,67,4.2,5.8,97,0.12,,,0.17,Rainwise IP-100,2013-01-12 00:21:00,
2013-01-11 19:26:00,40.3,39.0,30.19,ENE,67,0.0,6.3,97,0.18,,,0.18,Rainwise IP-100,2013-01-12 00:26:00,
2013-01-11 19:31:00,40.5,40.0,30.19,NNE,22,2.3,4.0,97,0.12,,,0.19,Rainwise IP-100,2013-01-12 00:31:00,
2013-01-11 19:36:00,40.8,40.0,30.19,NE,45,4.2,7.0,97,0.12,,,0.20,Rainwise IP-100,2013-01-12 00:36:00,
2013-01-11 19:41:00,41.1,40.0,30.19,NE,45,3.3,6.5,97,0.12,,,0.21,Rainwise IP-100,2013-01-12 00:41:00,
2013-01-11 19:46:00,41.3,40.0,30.20,NW,315,7.2,7.2,97,0.24,,,0.24,Rainwise IP-100,2013-01-12 00:46:00,
2013-01-11 19:51:00,41.1,40.0,30.21,NW,315,5.4,8.2,97,0.24,,,0.25,Rainwise IP-100,2013-01-12 00:51:00,
2013-01-11 19:52:00,41.1,40.0,30.21,NW,315,5.8,7.7,97,0.18,,,0.25,Rainwise IP-100,2013-01-12 00:52:00,
2013-01-11 19:57:00,41.1,40.0,30.20,NNW,337,4.2,6.8,97,0.18,,,0.27,Rainwise IP-100,2013-01-12 00:57:00,
2013-01-11 20:02:00,41.2,40.0,30.21,NNW,337,4.9,6.1,97,0.24,,,0.29,Rainwise IP-100,2013-01-12 01:02:00,
2013-01-11 20:07:00,41.4,40.0,30.21,NW,315,5.1,6.1,98,0.24,,,0.32,Rainwise IP-100,2013-01-12 01:07:00,
2013-01-11 20:12:00,41.3,40.0,30.21,NNW,337,3.7,5.8,98,0.24,,,0.33,Rainwise IP-100,2013-01-12 01:12:00,
2013-01-11 20:18:00,41.2,40.0,30.21,West,270,0.0,4.4,98,0.12,,,0.34,Rainwise IP-100,2013-01-12 01:18:00,
2013-01-11 20:23:00,41.1,40.0,30.21,NNW,337,0.0,3.5,98,0.06,,,0.34,Rainwise IP-100,2013-01-12 01:23:00,
2013-01-11 20:28:00,41.2,40.0,30.20,NNW,337,0.0,0.0,98,0.00,,,0.34,Rainwise IP-100,2013-01-12 01:28:00,
2013-01-11 20:33:00,41.5,41.0,30.20,ENE,67,2.6,5.1,98,0.00,,,0.34,Rainwise IP-100,2013-01-12 01:33:00,
2013-01-11 20:38:00,41.6,41.0,30.20,NE,45,0.0,3.7,98,0.06,,,0.35,Rainwise IP-100,2013-01-12 01:38:00,
2013-01-11 20:43:00,41.6,41.0,30.20,NE,45,0.0,1.6,98,0.06,,,0.35,Rainwise IP-100,2013-01-12 01:43:00,
2013-01-11 20:48:00,41.6,41.0,30.19,NE,45,0.0,1.2,98,0.00,,,0.35,Rainwise IP-100,2013-01-12 01:48:00,
2013-01-11 20:54:00,41.6,41.0,30.19,NE,45,1.2,1.6,98,0.00,,,0.35,Rainwise IP-100,2013-01-12 01:54:00,
2013-01-11 20:59:00,41.6,41.0,30.19,NE,45,0.0,1.9,98,0.00,,,0.35,Rainwise IP-100,2013-01-12 01:59:00,
2013-01-11 21:04:00,41.6,41.0,30.19,NE,45,0.0,0.0,98,0.00,,,0.35,Rainwise IP-100,2013-01-12 02:04:00,
2013-01-11 21:09:00,41.5,41.0,30.19,NE,45,1.2,1.9,98,0.00,,,0.35,Rainwise IP-100,2013-01-12 02:09:00,
2013-01-11 21:14:00,41.6,41.0,30.19,NE,45,0.0,2.1,98,0.00,,,0.35,Rainwise IP-100,2013-01-12 02:14:00,
2013-01-11 21:19:00,41.7,41.0,30.18,NE,45,1.4,1.4,98,0.00,,,0.35,Rainwise IP-100,2013-01-12 02:19:00,
2013-01-11 21:24:00,41.8,41.0,30.18,NE,45,2.1,2.3,98,0.00,,,0.35,Rainwise IP-100,2013-01-12 02:24:00,
2013-01-11 21:29:00,41.9,41.0,30.18,NE,45,0.0,2.3,98,0.06,,,0.36,Rainwise IP-100,2013-01-12 02:29:00,
2013-01-11 21:35:00,41.9,41.0,30.17,NE,45,0.0,2.8,98,0.06,,,0.36,Rainwise IP-100,2013-01-12 02:35:00,
2013-01-11 21:40:00,41.9,41.0,30.17,ENE,67,1.6,2.8,98,0.00,,,0.36,Rainwise IP-100,2013-01-12 02:40:00,
2013-01-11 21:45:00,42.0,41.0,30.16,East,90,4.2,4.7,98,0.06,,,0.37,Rainwise IP-100,2013-01-12 02:45:00,
2013-01-11 21:50:00,42.0,41.0,30.16,ENE,67,4.7,7.0,98,0.06,,,0.37,Rainwise IP-100,2013-01-12 02:50:00,
2013-01-11 21:55:00,42.1,41.0,30.17,ENE,67,3.3,5.8,98,0.00,,,0.37,Rainwise IP-100,2013-01-12 02:55:00,
2013-01-11 22:00:00,42.1,41.0,30.17,NNE,22,2.6,6.5,98,0.00,,,0.37,Rainwise IP-100,2013-01-12 03:00:00,
2013-01-11 22:05:00,42.2,42.0,30.17,NE,45,2.8,4.7,99,0.06,,,0.38,Rainwise IP-100,2013-01-12 03:05:00,
2013-01-11 22:11:00,42.2,42.0,30.17,NE,45,2.3,4.9,99,0.06,,,0.38,Rainwise IP-100,2013-01-12 03:11:00,
2013-01-11 22:16:00,42.3,42.0,30.17,ENE,67,3.0,4.4,99,0.00,,,0.38,Rainwise IP-100,2013-01-12 03:16:00,
2013-01-11 22:21:00,42.3,42.0,30.16,NE,45,2.8,6.3,99,0.00,,,0.38,Rainwise IP-100,2013-01-12 03:21:00,
2013-01-11 22:26:00,42.4,42.0,30.16,NNE,22,2.1,5.4,99,0.00,,,0.38,Rainwise IP-100,2013-01-12 03:26:00,
2013-01-11 22:31:00,42.5,43.0,30.16,NNE,22,2.6,4.2,99,0.00,,,0.38,Rainwise IP-100,2013-01-12 03:31:00,
2013-01-11 22:36:00,42.5,43.0,30.16,NNE,22,1.4,4.2,99,0.00,,,0.38,Rainwise IP-100,2013-01-12 03:36:00,
2013-01-11 22:41:00,42.6,43.0,30.16,NNE,22,0.0,3.7,99,0.00,,,0.38,Rainwise IP-100,2013-01-12 03:41:00,
2013-01-11 22:46:00,42.7,43.0,30.15,NE,45,3.7,4.0,99,0.00,,,0.38,Rainwise IP-100,2013-01-12 03:46:00,
2013-01-11 22:52:00,42.9,43.0,30.14,NE,45,2.6,5.4,99,0.06,,,0.39,Rainwise IP-100,2013-01-12 03:52:00,
2013-01-11 22:57:00,43.0,43.0,30.14,NE,45,2.8,5.4,99,0.06,,,0.39,Rainwise IP-100,2013-01-12 03:57:00,
2013-01-11 23:02:00,42.9,43.0,30.14,NE,45,1.9,5.1,99,0.00,,,0.39,Rainwise IP-100,2013-01-12 04:02:00,
2013-01-11 23:07:00,43.0,43.0,30.14,ENE,67,4.7,4.7,99,0.00,,,0.39,Rainwise IP-100,2013-01-12 04:07:00,
2013-01-11 23:12:00,43.1,43.0,30.14,ENE,67,1.2,6.3,99,0.00,,,0.39,Rainwise IP-100,2013-01-12 04:12:00,
2013-01-11 23:17:00,43.3,43.0,30.14,NNE,22,3.5,4.7,99,0.00,,,0.39,Rainwise IP-100,2013-01-12 04:17:00,
2013-01-11 23:22:00,43.4,43.0,30.14,North,360,1.9,4.7,99,0.00,,,0.39,Rainwise IP-100,2013-01-12 04:22:00,
2013-01-11 23:28:00,43.3,43.0,30.14,North,360,1.4,2.6,99,0.00,,,0.39,Rainwise IP-100,2013-01-12 04:28:00,
2013-01-11 23:33:00,43.4,43.0,30.14,NNE,22,1.2,2.3,99,0.00,,,0.39,Rainwise IP-100,2013-01-12 04:33:00,
2013-01-11 23:38:00,43.5,44.0,30.14,NNE,22,1.4,3.0,99,0.00,,,0.39,Rainwise IP-100,2013-01-12 04:38:00,
2013-01-11 23:43:00,43.6,44.0,30.13,NNE,22,4.2,4.2,99,0.00,,,0.39,Rainwise IP-100,2013-01-12 04:43:00,
2013-01-11 23:48:00,43.6,44.0,30.12,ENE,67,3.3,4.9,99,0.00,,,0.39,Rainwise IP-100,2013-01-12 04:48:00,
2013-01-11 23:53:00,43.6,44.0,30.12,NNE,22,1.4,5.6,99,0.12,,,0.41,Rainwise IP-100,2013-01-12 04:53:00,
2013-01-11 23:58:00,43.5,44.0,30.11,NE,45,5.4,5.4,99,0.24,,,0.43,Rainwise IP-100,2013-01-12 04:58:00,